Wetbulb
77.07 75.44 73.00 73.47 73.01 71.84 70.84 71.30 71.69 71.54 72.96 72.88 74.04 74.54 74.33 73.07 72.35 70.22 70.78 70.94 71.45 69.48
75.63 74.42 73.44 73.92 74.24 71.42 70.99 69.66 70.79 71.65 72.08 72.08 72.54 71.92 71.60 71.03 71.91 71.75 71.23 71.03 70.44 68.87
74.31 74.23 73.91 74.58 72.47 71.02 69.82 70.95 71.13 71.55 71.10 71.60 71.85 72.44 71.52 70.30 70.12 70.88 71.30 71.31 71.30 71.04
73.76 73.22 73.65 73.68 72.00 70.80 69.72 70.78 70.68 71.20 70.21 70.09 69.83 70.53 70.78 71.11 70.73 70.45 69.86 69.86 69.71 69.48
73.75 72.95 72.67 71.83 71.13 71.46 69.63 71.23 70.46 70.41 68.50 68.62 68.37 68.37 67.44 66.83 66.59 67.60 67.94 68.33 68.03 67.95
72.20 71.97 71.97 70.97 70.99 69.96 70.04 69.68 69.97 69.96 68.23 67.78 67.86 67.45 66.42 65.37 64.35 64.18 63.41 64.08 64.02 64.83
71.93 72.20 71.66 71.59 70.89 69.41 69.39 69.78 69.47 69.39 68.58 68.03 66.75 66.99 65.99 65.25 64.64 63.47 63.19 63.33 62.82 62.36
72.80 72.35 71.88 70.74 70.25 69.30 68.91 69.22 69.35 68.03 67.18 66.82 65.32 62.11 65.36 65.64 64.99 64.33 63.49 62.53 61.31 60.86
72.57 72.16 71.74 70.35 69.39 68.56 67.95 68.73 68.17 66.93 65.81 64.74 62.22 57.53 58.61 63.38 64.44 64.68 64.90 63.67 62.29 62.05
71.95 71.57 71.43 70.08 68.90 67.27 66.67 67.98 67.77 66.46 65.15 63.57 61.90 56.23 56.86 59.46 64.06 63.37 62.83 62.74 63.40 61.79
71.58 71.33 71.08 68.70 68.27 67.07 66.02 66.73 66.53 65.72 64.23 62.40 57.28 54.47 54.31 56.12 64.42 62.66 60.81 59.85 61.61 61.37
72.81 70.76 69.05 67.25 66.54 66.46 65.88 66.57 65.66 65.58 64.47 62.83 58.77 52.59 52.49 57.22 62.77 61.00 59.71 56.89 54.13 59.05
71.57 72.13 68.92 66.94 66.30 66.24 65.79 65.21 63.51 62.86 62.99 58.85 59.23 50.62 50.39 53.54 62.09 60.68 58.10 57.54 55.79 51.79
64.91 68.95 67.15 66.30 65.76 65.44 64.57 63.97 61.88 60.61 61.01 58.70 54.11 52.97 49.00 49.82 61.15 61.99 60.38 57.10 54.83 52.88
MSLP
1013.22 1013.20 1013.34 1013.86 1013.77 1013.70 1013.84 1013.90 1013.90 1013.59 1013.07 1012.62 1012.20 1012.19 1012.30 1012.46 1012.34 1012.51 1012.82 1013.30 1013.61 1013.78
1013.50 1013.65 1014.05 1014.25 1013.97 1014.22 1014.55 1014.54 1014.30 1013.75 1013.28 1012.92 1012.58 1012.55 1012.54 1012.41 1012.36 1012.55 1012.88 1013.15 1013.68 1013.96
1013.55 1013.96 1014.30 1014.26 1014.44 1014.66 1015.02 1014.80 1014.41 1013.91 1013.71 1013.47 1013.26 1013.06 1013.02 1013.03 1012.70 1012.72 1013.05 1013.25 1013.56 1013.80
1013.42 1014.08 1014.39 1014.34 1014.65 1015.06 1015.23 1015.01 1014.63 1014.35 1014.24 1014.05 1013.93 1013.75 1013.67 1013.50 1013.51 1013.57 1013.57 1013.60 1013.70 1013.82
1013.65 1014.11 1014.49 1014.49 1014.80 1015.14 1015.19 1015.18 1015.03 1014.84 1014.85 1014.87 1014.88 1014.89 1014.85 1014.84 1014.95 1014.82 1014.76 1014.70 1014.59 1014.58
1013.73 1014.26 1014.59 1014.67 1015.05 1015.29 1015.39 1015.33 1015.38 1015.28 1015.30 1015.31 1015.52 1015.73 1015.91 1015.98 1016.05 1016.08 1016.13 1016.00 1015.93 1015.81
1013.63 1014.35 1014.66 1014.92 1015.17 1015.38 1015.60 1015.47 1015.69 1015.75 1015.71 1015.75 1016.11 1016.39 1016.59 1016.70 1016.73 1016.80 1016.84 1016.84 1016.77 1016.70
1013.67 1014.38 1014.66 1015.27 1015.51 1015.60 1015.70 1015.87 1016.01 1016.06 1016.23 1016.35 1016.70 1017.20 1017.12 1017.04 1017.10 1017.18 1017.28 1017.36 1017.46 1017.57
1013.77 1014.37 1014.71 1015.32 1015.78 1015.98 1016.14 1016.30 1016.36 1016.55 1016.87 1017.15 1017.55 1017.67 1017.59 1017.43 1017.26 1017.27 1017.36 1017.48 1017.71 1017.79
1013.72 1014.39 1014.73 1015.45 1015.89 1016.29 1016.50 1016.56 1016.65 1017.04 1017.44 1017.78 1018.13 1018.18 1018.06 1017.90 1017.69 1017.63 1017.74 1017.84 1017.73 1017.95
1013.52 1014.17 1014.67 1015.51 1016.18 1016.74 1016.74 1016.94 1017.01 1017.37 1017.92 1018.33 1018.82 1018.71 1018.49 1018.28 1018.19 1018.30 1018.66 1018.78 1018.64 1018.81
1013.61 1014.24 1014.86 1015.69 1016.36 1016.94 1017.10 1017.28 1017.39 1017.78 1018.17 1018.58 1019.25 1019.30 1019.03 1018.70 1018.57 1019.00 1019.32 1019.69 1019.69 1019.61
1014.20 1014.40 1015.12 1015.80 1016.42 1016.92 1017.31 1017.49 1017.88 1018.25 1018.84 1019.22 1019.54 1019.68 1019.33 1018.85 1018.70 1018.91 1019.45 1019.84 1020.28 1020.51
1015.33 1015.24 1015.49 1016.09 1016.64 1017.02 1017.42 1017.84 1018.31 1018.80 1019.40 1019.91 1020.21 1020.28 1019.89 1019.35 1019.08 1018.92 1019.01 1019.45 1020.37 1021.06
Wind_Speed
2 2 6 5 5 6 6 7 9 9 8 8 5 2 1 2 4 5 6 5 5 4
3 6 5 4 5 6 8 6 6 8 8 8 7 5 5 3 4 3 4 5 5 4
5 6 5 4 7 9 5 6 7 9 10 10 10 8 5 4 7 4 2 3 4 4
6 6 3 3 8 9 4 6 8 9 11 11 12 11 9 8 9 10 8 3 2 4
9 6 4 6 8 6 5 5 7 9 10 9 9 10 11 12 12 12 11 9 8 9
10 8 3 6 6 7 5 7 8 9 8 9 10 10 10 10 10 10 10 11 11 11
8 7 4 7 7 6 5 6 8 8 8 9 11 9 8 8 9 10 10 9 9 9
9 8 5 8 6 5 5 8 6 8 8 10 10 8 6 6 6 8 8 8 9 9
9 8 6 7 6 5 6 5 8 8 9 9 7 12 13 9 4 4 5 6 7 9
11 7 7 8 6 5 6 5 6 9 8 8 7 13 14 16 6 6 8 9 7 9
9 8 7 9 6 5 6 5 6 8 8 7 7 14 15 15 7 9 11 11 7 7
5 7 6 9 7 4 5 5 5 6 7 7 7 11 11 10 8 8 8 8 11 9
4 7 6 9 7 5 4 4 7 8 8 10 6 12 11 8 5 7 6 7 7 12
9 5 6 6 5 5 5 6 7 8 7 8 9 9 12 14 5 2 4 6 6 5
Wind_Direction
61 320 57 59 333 40 23 20 9 337 341 337 327 66 222 260 259 241 195 210 214 213
76 60 62 30 13 35 39 7 350 347 6 5 34 37 25 344 282 193 192 194 206 210
126 81 70 343 78 63 23 6 10 20 22 25 25 36 37 31 1 286 161 190 190 204
124 95 73 49 75 71 20 21 21 37 30 36 27 24 25 37 42 47 45 64 206 267
100 89 73 68 69 89 61 54 39 55 45 40 44 43 39 38 30 32 40 41 48 45
118 107 80 82 85 77 48 57 38 63 61 58 52 48 53 51 51 53 47 39 37 30
119 115 104 96 84 86 63 65 59 61 62 63 53 51 61 59 58 59 59 56 51 46
130 125 133 97 85 79 63 79 60 59 52 61 63 37 33 77 82 86 82 69 68 64
133 133 125 117 106 99 81 68 77 68 67 66 58 19 21 13 78 88 105 114 120 105
134 146 137 128 125 117 103 104 90 87 76 76 65 20 15 8 58 47 53 43 43 74
141 159 149 127 114 138 121 95 87 93 93 88 55 27 10 349 74 65 49 27 54 68
134 160 159 130 132 143 127 125 107 96 102 96 68 32 15 360 93 78 74 56 31 36
4 201 152 142 140 141 147 130 93 82 67 49 79 27 13 1 129 129 123 113 85 45
7 44 89 113 126 139 134 99 97 99 78 62 30 37 20 12 61 357 132 118 87 51